[[{"header":{"parameterUnit":"m.s-1","parameterCategory":1,"la1":30.2991,"la2":30.254,"lo1":-89.0895,"lo2":-89.0444,"dy":0.0017,"dx":0.0017,"nx":28,"ny":28,"refTime":"2024-06-24T21:00:00:Z","depth":0,"parameterNumber":2,"parameterNumberName":"U-component_of_WINDS"},"data":[0,0,0,0,0,0,0,0,0,0,0,0,0,0,0,0,0,0,0,0,0,0,0,0,0,0,0,0,0,0,0,0,0,0,0,0,0,0,0,0,0,0,0,0,0,0,0,0,0,0,0,0,0,0,0,0,0,0,3.8225,3.8226,0,3.8362,3.8363,3.8365,3.829,3.8286,3.8282,3.8279,3.8423,3.843,3.8437,0,0,0,0,0,0,0,0,0,0,0,0,0,3.7902,3.7908,3.8225,3.8227,3.8228,3.8362,3.8363,3.8365,3.8291,3.8286,3.8281,3.8277,3.842,3.8429,3.8438,0,0,0,0,0,0,0,0,0,0,0,0,0,3.8041,3.791,3.8224,3.8207,3.8207,3.8361,3.8364,3.8366,3.8292,3.8286,3.828,3.8275,3.8417,3.8428,3.8439,3.8619,0,0,3.8472,3.8477,0,0,0,0,0,0,0,0,3.8033,3.8053,3.8208,3.8208,3.8208,3.8303,3.8302,3.8451,3.8293,3.826,3.8279,3.8272,3.8388,3.8401,3.8439,3.8626,3.8632,3.8473,3.848,3.8485,3.8488,0,0,0,0,0,0,0,3.8023,3.8046,3.8279,3.821,3.8211,3.8193,3.8207,3.833,3.8354,3.8262,3.8257,3.8274,3.8387,3.8428,3.8442,3.8634,3.8473,3.8483,3.849,3.8494,3.8976,3.8982,0,0,0,0,0,0,3.8014,3.8039,3.8275,3.8283,3.8105,3.8204,3.8219,3.8278,3.8352,3.8358,3.8279,3.827,3.8412,3.8429,3.8446,3.8661,3.8485,3.8495,3.8501,3.897,3.8977,3.8984,0,0,0,0,0,0,3.8008,3.8036,3.8269,3.816,3.8188,3.8215,3.8283,3.8284,3.8325,3.8364,3.8369,3.8317,3.8409,3.8431,3.8576,3.8665,3.85,3.851,3.8962,3.8972,3.8981,3.9093,0,0,0,0,0,0,3.7999,3.8034,3.8102,3.8162,3.8194,3.8396,3.8288,3.8291,3.8344,3.8334,3.8401,3.8407,3.8406,3.856,3.8587,3.8677,3.8518,3.8954,3.8967,3.8978,3.9082,3.9105,3.9126,0,0,0,0,0,3.7987,3.813,3.8106,3.8135,3.828,3.8402,3.842,3.8415,3.8352,3.8421,3.8446,3.8405,3.8652,3.8576,3.8606,3.87,3.8949,3.8963,3.8977,3.9072,3.9101,3.9125,0,0,0,0,0,0,3.8081,3.8137,3.8112,3.8277,3.8335,3.8389,3.8475,3.8446,3.8524,3.8511,3.8503,3.8519,3.867,3.87,3.8615,3.8879,3.879,3.8811,3.8853,3.888,3.8902,3.8891,3.8528,0,0,0,0,0,3.8121,3.8214,3.8259,3.84,3.8431,3.8448,3.8501,3.8492,3.8552,3.8577,3.8612,3.8673,3.8764,3.8824,3.891,3.9087,3.91,3.9166,3.9188,3.9206,3.9223,3.9318,3.9347,3.903,3.903,3.9029,0,0,3.8204,3.8246,3.8306,3.842,3.8464,3.8561,3.8469,3.8577,3.8649,3.8593,3.8732,3.8761,3.8828,3.8989,3.9062,3.9019,3.9314,3.9224,3.9238,3.9245,3.9335,3.9365,3.9392,3.9039,3.9038,3.9036,0,0,3.8405,3.8447,3.8569,3.8614,3.8681,3.8692,3.8722,3.878,3.8796,3.8935,3.8896,3.8982,3.914,3.9189,3.9234,3.9454,3.9419,3.9483,3.9597,3.9689,3.9714,3.9736,3.9813,3.9841,3.9501,3.9501,3.9501,0,3.85,3.8644,3.8635,3.8745,3.8796,3.875,3.8873,3.8919,3.9011,3.9048,3.8999,3.9194,3.9237,3.9408,3.9461,3.9501,3.9534,3.9474,3.9711,3.9733,3.9753,3.9826,3.9856,3.9508,3.9507,3.9507,3.9506,0,3.8757,3.8858,3.8948,3.9037,3.9099,3.9215,3.9225,3.9289,3.9275,3.9291,3.9433,3.9483,3.9577,3.9618,3.9606,3.9788,3.9759,3.9711,3.9622,3.9791,3.9859,3.9888,3.9518,3.9516,3.9514,3.9512,0,0,3.9019,3.9102,3.9135,3.9174,3.9245,3.9323,3.9438,3.9529,3.9583,3.9649,3.9745,3.9879,3.9834,3.9886,3.988,3.9961,4.013,3.9903,3.9904,3.9942,4.0332,4.0367,4.0399,4.0108,4.0114,4.0118,4.0326,0,3.9223,3.9422,3.9417,3.9602,3.9694,3.9652,3.9752,3.9807,3.9826,3.9907,3.9929,4.0023,3.9958,3.9989,4.0068,4.0093,4.0208,4.0078,4.0197,4.0201,4.0179,4.0435,4.0472,4.0666,4.0353,4.0358,4.0361,0,3.9487,3.956,3.9753,3.981,3.9848,3.9938,4.0021,4.01,4.0162,4.017,4.0228,4.0208,4.0325,4.0235,4.0395,4.0307,4.0356,4.0376,4.0383,4.0392,4.029,4.045,4.0728,4.0756,4.0404,4.04,4.0397,0,3.9657,3.9804,3.9938,3.9973,4.0043,4.0106,4.0139,4.0195,4.025,4.0323,4.0358,4.0445,4.0493,4.0561,4.0565,4.0499,4.0727,4.0637,4.0737,4.0737,4.0785,4.0782,4.1073,4.082,4.082,4.0819,4.0819,0,3.9884,4.0003,4.0014,4.0097,4.023,4.0225,4.0357,4.0383,4.0433,4.0521,4.0491,4.0574,4.0576,4.0661,4.0666,4.0798,4.082,4.083,4.0829,4.0831,4.083,4.0861,4.0847,4.0827,4.0825,4.0824,4.0823,0,4.0094,4.0107,4.025,4.0304,4.0321,4.0416,4.0463,4.0542,4.0558,4.0669,4.0694,4.072,4.0819,4.0831,4.0947,4.095,4.1108,4.1094,4.1086,4.1083,4.1181,4.1171,4.1502,4.1544,4.1266,4.1269,4.1271,0,4.0237,4.0328,4.0391,4.0447,4.0482,4.0573,4.0628,4.0627,4.0687,4.0763,4.0833,4.0928,4.1004,4.1164,4.1193,4.1281,4.1268,4.1378,4.1281,4.128,4.1268,4.1261,4.127,4.1396,4.1399,4.1402,4.1404,0,4.0489,4.049,4.0571,4.0654,4.0721,4.0787,4.0848,4.0896,4.0903,4.0971,4.1071,4.113,4.1247,4.1342,4.1428,4.1463,4.1435,4.1434,4.1462,4.1463,4.1454,4.1458,4.1135,4.1426,4.1424,4.1422,4.1421,4.142,4.0668,4.0746,4.0803,4.0894,4.094,4.0998,4.1074,4.11,4.1182,4.1276,4.1272,4.1381,4.1441,4.1554,4.1595,4.1681,4.1644,4.1685,4.1694,4.1704,4.1712,4.1442,4.1697,4.1696,4.1696,4.1695,4.1695,0,4.0916,4.0951,4.1034,4.1121,4.1192,4.1159,4.1226,4.1288,4.1384,4.1442,4.1516,4.1631,4.1723,4.176,4.185,4.1912,4.1901,4.1935,4.1929,4.1937,4.1741,4.1707,4.1942,4.1942,4.1942,4.1942,4.1942,4.1942,4.1054,4.1183,4.1192,4.1345,4.1378,4.1484,4.1525,4.1579,4.1624,4.1752,4.1828,4.1851,4.1901,4.1994,4.2077,4.2085,4.2119,4.2159,4.2162,4.1977,4.1951,4.1928,4.1896,4.2166,4.2167,4.2351,4.2352,4.2354]},{"header":{"parameterUnit":"m.s-1","parameterCategory":1,"la1":30.2991,"la2":30.254,"lo1":-89.0895,"lo2":-89.0444,"dy":0.0017,"dx":0.0017,"nx":28,"ny":28,"refTime":"2024-06-24T21:00:00:Z","depth":0,"parameterNumber":3,"parameterNumberName":"V-component_of_WINDS"},"data":[0,0,0,0,0,0,0,0,0,0,0,0,0,0,0,0,0,0,0,0,0,0,0,0,0,0,0,0,0,0,0,0,0,0,0,0,0,0,0,0,0,0,0,0,0,0,0,0,0,0,0,0,0,0,0,0,0,0,0.4183,0.4183,0,0.4228,0.4228,0.4229,0.422,0.422,0.4219,0.4218,0.4268,0.427,0.4272,0,0,0,0,0,0,0,0,0,0,0,0,0,0.4092,0.4094,0.4183,0.4183,0.4184,0.4228,0.4228,0.4229,0.4221,0.422,0.4219,0.4218,0.4267,0.4269,0.4272,0,0,0,0,0,0,0,0,0,0,0,0,0,0.4134,0.4094,0.4183,0.4185,0.4186,0.4228,0.4228,0.4229,0.4221,0.422,0.4218,0.4217,0.4266,0.4269,0.4272,0.4316,0,0,0.4282,0.4283,0,0,0,0,0,0,0,0,0.4131,0.4137,0.4184,0.4185,0.4186,0.4217,0.4214,0.4258,0.4221,0.4208,0.4218,0.4217,0.4252,0.4256,0.4268,0.4318,0.432,0.4282,0.4284,0.4285,0.4286,0,0,0,0,0,0,0,0.4128,0.4135,0.4201,0.4185,0.4186,0.4184,0.4189,0.4223,0.4236,0.4209,0.4208,0.4213,0.4252,0.4265,0.4269,0.4321,0.4282,0.4285,0.4287,0.4288,0.4409,0.441,0,0,0,0,0,0,0.4124,0.4133,0.4199,0.4202,0.4155,0.4187,0.4192,0.4208,0.4236,0.4239,0.4214,0.4213,0.426,0.4265,0.427,0.4323,0.4285,0.4288,0.429,0.4408,0.441,0.4411,0,0,0,0,0,0,0.4122,0.413,0.4197,0.4167,0.4176,0.419,0.4208,0.421,0.4222,0.424,0.4243,0.4224,0.4259,0.4266,0.4304,0.4325,0.429,0.4292,0.4406,0.4408,0.441,0.4429,0,0,0,0,0,0,0.412,0.413,0.4146,0.4168,0.4177,0.423,0.4209,0.4212,0.4227,0.4226,0.425,0.4253,0.4259,0.43,0.4307,0.4328,0.4295,0.4405,0.4407,0.441,0.4427,0.4431,0.4435,0,0,0,0,0,0.4117,0.4151,0.4147,0.4155,0.4198,0.4231,0.4237,0.4242,0.4229,0.4246,0.4257,0.4252,0.4321,0.4304,0.4312,0.4334,0.4403,0.4406,0.4409,0.4425,0.443,0.4435,0,0,0,0,0,0,0.4133,0.4154,0.415,0.4191,0.4209,0.423,0.4251,0.4248,0.4271,0.4269,0.4274,0.428,0.4319,0.433,0.4311,0.4378,0.436,0.4365,0.4369,0.4375,0.4379,0.4376,0.4298,0,0,0,0,0,0.4141,0.4165,0.4182,0.4218,0.4227,0.4237,0.4252,0.4254,0.4273,0.4281,0.4296,0.4315,0.4341,0.4358,0.4383,0.4428,0.4433,0.4447,0.4451,0.4455,0.446,0.4483,0.449,0.4421,0.4421,0.4421,0,0,0.4159,0.4173,0.4188,0.4221,0.4235,0.4261,0.4244,0.4272,0.4292,0.4286,0.4323,0.4334,0.4356,0.4397,0.4416,0.4408,0.4479,0.4459,0.4461,0.4464,0.4487,0.4494,0.4499,0.4423,0.4423,0.4422,0,0,0.4204,0.4217,0.4247,0.4261,0.4282,0.4289,0.4296,0.4317,0.4323,0.436,0.4356,0.4379,0.4424,0.444,0.4454,0.4503,0.45,0.4511,0.4535,0.4558,0.4563,0.4568,0.4586,0.4592,0.4515,0.4515,0.4515,0,0.4224,0.4262,0.4264,0.4292,0.4307,0.4301,0.4332,0.4346,0.4374,0.4385,0.4375,0.443,0.4445,0.4489,0.4501,0.4512,0.4521,0.4509,0.4562,0.4567,0.4571,0.4588,0.4595,0.4516,0.4516,0.4516,0.4516,0,0.4285,0.4311,0.4333,0.4359,0.4376,0.4406,0.4413,0.443,0.443,0.4437,0.4474,0.4491,0.4519,0.453,0.4531,0.4575,0.4569,0.456,0.4543,0.4579,0.4595,0.4602,0.4518,0.4518,0.4517,0.4517,0,0,0.4344,0.4369,0.4377,0.4388,0.441,0.4431,0.446,0.4486,0.45,0.452,0.4545,0.4581,0.4573,0.4589,0.4591,0.4611,0.4649,0.46,0.4601,0.4609,0.4698,0.4705,0.4713,0.4646,0.4648,0.4649,0.4697,0,0.4391,0.4441,0.4443,0.449,0.4514,0.4508,0.4533,0.4549,0.4557,0.4579,0.4588,0.4614,0.4601,0.461,0.463,0.464,0.4667,0.4637,0.467,0.4672,0.4666,0.4721,0.4729,0.4773,0.4703,0.4704,0.4705,0,0.4454,0.4474,0.4522,0.4539,0.4549,0.4572,0.4595,0.4616,0.4634,0.4638,0.4655,0.4654,0.4684,0.4665,0.4707,0.4686,0.4699,0.4707,0.4708,0.4713,0.4691,0.4727,0.4787,0.4794,0.4715,0.4714,0.4713,0,0.4492,0.4531,0.4564,0.4574,0.4595,0.4611,0.4621,0.4637,0.4652,0.4673,0.4683,0.4707,0.472,0.4739,0.4745,0.473,0.4787,0.4768,0.4792,0.4791,0.4805,0.4804,0.4869,0.4812,0.4812,0.4812,0.4812,0,0.4546,0.4576,0.4581,0.4602,0.4635,0.4637,0.467,0.4679,0.4694,0.4716,0.4712,0.4734,0.474,0.4762,0.4767,0.4801,0.4807,0.4812,0.4813,0.4812,0.4812,0.4822,0.482,0.4814,0.4813,0.4813,0.4813,0,0.4595,0.46,0.4636,0.4652,0.4656,0.468,0.4694,0.4714,0.472,0.4749,0.4756,0.4766,0.4793,0.48,0.4832,0.4835,0.4875,0.4873,0.4868,0.4868,0.4892,0.489,0.4966,0.4976,0.4912,0.4913,0.4914,0,0.4629,0.4651,0.4669,0.4683,0.4693,0.4716,0.4731,0.4733,0.4749,0.4771,0.4788,0.4814,0.4834,0.4877,0.4888,0.4912,0.4911,0.4936,0.4915,0.4913,0.4912,0.491,0.4913,0.494,0.4941,0.4941,0.4942,0,0.4689,0.469,0.4711,0.4732,0.4749,0.4766,0.4783,0.4795,0.48,0.4818,0.4844,0.486,0.4891,0.4917,0.4941,0.4952,0.4948,0.4948,0.4955,0.4955,0.4952,0.4954,0.488,0.4947,0.4946,0.4946,0.4946,0.4945,0.4732,0.4751,0.4766,0.4789,0.4801,0.4817,0.4836,0.4844,0.4865,0.489,0.489,0.4919,0.4936,0.4968,0.4979,0.5002,0.4995,0.5005,0.5007,0.501,0.5012,0.4947,0.5006,0.5006,0.5006,0.5006,0.5006,0,0.4792,0.4801,0.4822,0.4844,0.4862,0.4855,0.4873,0.4889,0.4913,0.4929,0.4948,0.4978,0.5003,0.5014,0.5039,0.5055,0.5053,0.5061,0.506,0.5063,0.5017,0.5009,0.5061,0.5061,0.5061,0.5061,0.5061,0.5061,0.4826,0.4858,0.486,0.4898,0.4907,0.4934,0.4945,0.4959,0.4971,0.5004,0.5023,0.503,0.5044,0.5069,0.5091,0.5094,0.5104,0.5112,0.5114,0.5072,0.5066,0.5061,0.5053,0.5114,0.5114,0.5158,0.5159,0.5159]}]]